Regional Weather Roundup
Issued by NWS Midland/Odessa, TX

Skip options and go directly to product.
Home | Oldest Version | Next Version | Current Version | All | Text Only | Save Text | Print | Product List | Glossary On

Skip product version selection by date and time.   
065
ASUS44 KMAF 260610
RWRMAF
MIDLAND AREA WEATHER ROUNDUP
NATIONAL WEATHER SERVICE MIDLAND TX
100 AM CDT FRI AUG 26 2016

...IN SOUTHWEST TEXAS AND SOUTHEAST NEW MEXICO...

CITY           SKY/WX    TMP DP  RH WIND       PRES   REMARKS
ALPINE         CLOUDY    65  62  90 CALM      30.25F
ANDREWS        NOT AVBL
ARTESIA        NOT AVBL
BIG SPRING     FAIR      70  66  86 CALM      30.13F
CARLSBAD       FAIR      65  62  90 SE5       30.11S
DRYDEN           N/A     80  62  54 E9        30.07R
FORT STOCKTON  MOCLDY    70  65  84 SE5       30.12S
GUAD PASS      FAIR      61  54  77 NE20      30.25R
HOBBS          NOT AVBL
MARFA          MOCLDY   N/A N/A N/A NE5       30.23R
MIDLAND AIRPK  MOCLDY    71  62  74 CALM      30.12F
MIDLAND INTL   MOCLDY    70  63  78 E3        30.11F
ODESSA         MOCLDY    69  64  84 SE5       30.12F
PECOS          LGT RAIN  69  66  90 CALM      30.10R
PRESIDIO       NOT AVBL
SEMINOLE       CLOUDY    65  64  94 CALM      30.14F
SNYDER           N/A     73  62  69 N12       30.12S
WINK           FAIR      70  65  84 MISG      30.11R
$$
...OTHER STATIONS IN TEXAS...

CITY           SKY/WX    TMP DP  RH WIND       PRES   REMARKS
ABILENE        FAIR      76  65  68 S12       30.09R
AMARILLO       CLOUDY    63  59  87 SE3       30.18R
AUSTIN         FAIR      77  73  87 E3        30.06S
BROWNSVILLE    FAIR      80  76  87 SE6       30.01R
CORPUS CHRISTI FAIR      81  76  84 SE5       30.02R
DALLAS FTW     MOCLDY    82  72  71 SE13      30.05R
DEL RIO        FAIR      80  71  74 E12       30.02S
EL PASO        MOCLDY    73  55  53 S5        30.11S
HOUSTON INT    CLOUDY    76  73  91 N6        30.05S
LUBBOCK        LGT RAIN  65  63  93 NE13      30.16S
SAN ANGELO     FAIR      73  59  61 S6        30.08S
SAN ANTONIO    MOCLDY    78  73  84 SE7       30.08R
WACO           MOCLDY    82  75  79 S10       30.07R
WICHITA FALLS  NOT AVBL
$$
...OTHER LOCATIONS IN NEW MEXICO...

CITY           SKY/WX    TMP DP  RH WIND       PRES   REMARKS
ALAMAGORDO     NOT AVBL
ALBUQUERQUE    MOCLDY    71  47  42 SE6       30.19S
CANNON AFB     MOCLDY    63  61  94 SW18G31   30.19S
CLOVIS         FAIR      63  54  72 SE3       30.19F
HOLLOMAN AFB   NOT AVBL
ROSWELL        FAIR      65  60  84 SW5       30.14S
RUIDOSO        NOT AVBL
SANTA FE       CLOUDY    65  44  46 W8        30.27R
TRUTH OR CONSE FAIR      73  52  47 SW9       30.15S
TUCUMCARI      FAIR      65  57  75 SW6       30.19R
$$

USA.gov is the U.S. government's official web portal to all federal, state and local government web resources and services.